STARLINK-2083 (47676 NORAD) Tracking and Keplerian Element Data
This shows tracking and keplerian element data for the satellite.
Feedback or suggestion? Click here.
Element | Value |
Catalog | 47676 |
Name | STARLINK-2083 |
Epoch Orbit | 235 |
Epoch Day | 57.16667824 |
Epoch Year | 2021 |
RAAN | 52.0207 |
Inclination | 53.0494 |
Eccentricity | 5.47E-05 |
Argument of Perigee | 75.1137 |
Mean Anonmoly | 185.4445 |
Mean Motion | 15.8617025 |
Decay Rate | 0.00059892 |
L1 | 1 47676U 21012BJ 21057.16667824 .00059892 00000-0 23744-3 0 9997 |
L2 | 2 47676 53.0494 52.0207 0000547 75.1137 185.4445 15.86170250 2359 |
Live tracking and technical data element details for STARLINK-2083 (NORAD 47676). STARLINK-2083 can be tracked NOW for your location showing map with azimuth and elevation plus other details from your city location.
Track the satellite on the map from your city or location and see movement details for azimuth, elevation, latitude, longitude, range, height, and movement on the map or in text.
IsCatalogInMostPopularTable: catalog: 47676, numindb: 1
Update: records affected: 1
GetName: 47676 STARLINK-2083
Hit Count: updated at: Fri, 26 Feb 2021 10:36:29 GMT